Emporia, Virginia, United States (23847)
Lat: 36.69N, Lon: 77.54W
Wx Zone: VAZ087
Local Info
Past Weather Observations for Monday, October 20, 2014

NOTE: This archive is for the closest National Weather Service station to Emporia. Information may differ from the station used for current weather conditions.

Click here for Long-term Archive

Time Weather Temperature Dewpoint Humidity Pressure Winds Precip Visibility
23:55
Mostly Cloudy
52°F / 11°C 48°F / 9°C 88% 29.98 in
(1015 mb)
Calm - 10SM
23:35
Partly Cloudy
52°F / 11°C 48°F / 9°C 88% 29.98 in
(1015 mb)
Calm - 10SM
23:15
Partly Cloudy
50°F / 10°C 46°F / 8°C 88% 30.01 in
(1016 mb)
Calm - 10SM
22:55
Clear
50°F / 10°C 46°F / 8°C 88% 30.01 in
(1016 mb)
Calm - 10SM
22:35
Clear
50°F / 10°C 46°F / 8°C 88% 30.01 in
(1016 mb)
Calm - 10SM
22:15
Clear
50°F / 10°C 46°F / 8°C 88% 30.01 in
(1016 mb)
Calm - 10SM
21:55
Clear
50°F / 10°C 46°F / 8°C 88% 30.01 in
(1016 mb)
Calm - 10SM
21:35
Clear
50°F / 10°C 46°F / 8°C 88% 30.01 in
(1016 mb)
Calm - 10SM
21:15
Clear
50°F / 10°C 46°F / 8°C 88% 30.01 in
(1016 mb)
Calm - 10SM
20:55
Clear
48°F / 9°C 46°F / 8°C 94% 30.01 in
(1016 mb)
Calm - 10SM
20:35
Clear
50°F / 10°C 46°F / 8°C 88% 30.01 in
(1016 mb)
SE 3.5 mph
(SE 6 kph)
- 10SM
20:15
Clear
46°F / 8°C 45°F / 7°C 93% 30.04 in
(1017 mb)
Calm - 10SM
19:55
Clear
46°F / 8°C 45°F / 7°C 93% 30.04 in
(1017 mb)
Calm - 10SM
19:35
Clear
50°F / 10°C 46°F / 8°C 88% 30.04 in
(1017 mb)
Calm - 10SM
19:15
Clear
48°F / 9°C 45°F / 7°C 87% 30.04 in
(1017 mb)
Calm - 10SM
18:55
Clear
48°F / 9°C 46°F / 8°C 94% 30.04 in
(1017 mb)
Calm - 10SM
18:35
Clear
50°F / 10°C 46°F / 8°C 88% 30.04 in
(1017 mb)
Calm - 10SM
18:15
Clear
52°F / 11°C 46°F / 8°C 82% 30.04 in
(1017 mb)
Calm - 10SM
17:55
Clear
52°F / 11°C 46°F / 8°C 82% 30.04 in
(1017 mb)
Calm - 10SM
17:35
Clear
54°F / 12°C 46°F / 8°C 77% 30.04 in
(1017 mb)
Calm - 10SM
17:15
Clear
59°F / 15°C 45°F / 7°C 59% 30.01 in
(1016 mb)
Calm - 10SM
16:55
Clear
63°F / 17°C 43°F / 6°C 49% 30.01 in
(1016 mb)
S 3.5 mph
(S 6 kph)
- 10SM
16:35
Clear
63°F / 17°C 43°F / 6°C 49% 30.01 in
(1016 mb)
Calm - 10SM
16:15
Clear
64°F / 18°C 43°F / 6°C 46% 30.01 in
(1016 mb)
SSE 4.6 mph
(SSE 7 kph)
- 10SM
15:55
Clear
66°F / 19°C 43°F / 6°C 43% 30.01 in
(1016 mb)
S 8.1 mph
(S 13 kph)
- 10SM
15:35
Clear
68°F / 20°C 45°F / 7°C 43% 30.01 in
(1016 mb)
SE 6.9 mph
(SE 11 kph)
- 10SM
15:15
Clear
66°F / 19°C 43°F / 6°C 43% 30.01 in
(1016 mb)
S 6.9 mph
(S 11 kph)
- 10SM
14:55
Clear
66°F / 19°C 41°F / 5°C 40% 30.04 in
(1017 mb)
S 4.6 mph
(S 7 kph)
- 10SM
14:35
Clear
66°F / 19°C 43°F / 6°C 43% 30.04 in
(1017 mb)
S 5.8 mph
(S 9 kph)
- 10SM
14:15
Clear
68°F / 20°C 43°F / 6°C 40% 30.04 in
(1017 mb)
SSE 10.4 mph
(SSE 17 kph)
- 10SM
13:55
Clear
66°F / 19°C 43°F / 6°C 43% 30.04 in
(1017 mb)
S 8.1 mph
(S 13 kph)
- 10SM
13:35
Clear
66°F / 19°C 41°F / 5°C 40% 30.06 in
(1018 mb)
SSE 10.4 mph
(SSE 17 kph)
- 10SM
13:15
Clear
64°F / 18°C 41°F / 5°C 43% 30.06 in
(1018 mb)
SE 9.2 mph
(SE 15 kph)
- 10SM
12:55
Clear
64°F / 18°C 37°F / 3°C 37% 30.06 in
(1018 mb)
S 9.2 mph
(S 15 kph)
- 10SM
12:35
Clear
63°F / 17°C 37°F / 3°C 39% 30.09 in
(1019 mb)
S 9.2 mph
(S 15 kph)
- 10SM
12:15
Clear
63°F / 17°C 37°F / 3°C 39% 30.09 in
(1019 mb)
S 9.2 mph
(S 15 kph)
- 10SM
11:55
Clear
63°F / 17°C 41°F / 5°C 45% 30.12 in
(1020 mb)
SE 9.2 mph
(SE 15 kph)
- 10SM
11:35
Clear
63°F / 17°C 41°F / 5°C 45% 30.12 in
(1020 mb)
SSE 6.9 mph
(SSE 11 kph)
- 10SM
11:15
Clear
61°F / 16°C 39°F / 4°C 45% 30.15 in
(1021 mb)
SSE 8.1 mph
(SSE 13 kph)
- 10SM
10:55
Clear
61°F / 16°C 41°F / 5°C 48% 30.15 in
(1021 mb)
SE 10.4 mph
(SE 17 kph)
- 10SM
10:35
Clear
59°F / 15°C 43°F / 6°C 55% 30.15 in
(1021 mb)
SE 8.1 mph
(SE 13 kph)
- 10SM
10:15
Clear
59°F / 15°C 45°F / 7°C 59% 30.18 in
(1022 mb)
S 9.2 mph
(S 15 kph)
- 10SM
09:55
Clear
54°F / 12°C 45°F / 7°C 72% 30.18 in
(1022 mb)
SSE 4.6 mph
(SSE 7 kph)
- 10SM
09:35
Clear
54°F / 12°C 45°F / 7°C 72% 30.18 in
(1022 mb)
SE 5.8 mph
(SE 9 kph)
- 10SM
09:15
Clear
52°F / 11°C 45°F / 7°C 77% 30.18 in
(1022 mb)
SE 3.5 mph
(SE 6 kph)
- 10SM
08:55
Clear
50°F / 10°C 45°F / 7°C 82% 30.18 in
(1022 mb)
SSE 3.5 mph
(SSE 6 kph)
- 10SM
08:35
Clear
48°F / 9°C 45°F / 7°C 87% 30.18 in
(1022 mb)
SE 4.6 mph
(SE 7 kph)
- 10SM
08:15
Clear
46°F / 8°C 43°F / 6°C 87% 30.18 in
(1022 mb)
Calm - 10SM
07:55
Clear
45°F / 7°C 43°F / 6°C 93% 30.18 in
(1022 mb)
SE 4.6 mph
(SE 7 kph)
- 10SM
07:35
Clear
43°F / 6°C 41°F / 5°C 93% 30.18 in
(1022 mb)
NE 3.5 mph
(NE 6 kph)
- 10SM
07:15
Clear
39°F / 4°C 39°F / 4°C 100% 30.18 in
(1022 mb)
Calm - 7SM
06:55
Clear
37°F / 3°C 37°F / 3°C 100% 30.18 in
(1022 mb)
Calm - 10SM
06:35
Clear
36°F / 2°C 36°F / 2°C 100% 30.18 in
(1022 mb)
Calm - 10SM
06:15
Clear
36°F / 2°C 36°F / 2°C 100% 30.18 in
(1022 mb)
Calm - 10SM
05:55
Clear
36°F / 2°C 36°F / 2°C 100% 30.18 in
(1022 mb)
Calm - 7SM
05:35
Obscured
Fog And Mist
36°F / 2°C 36°F / 2°C 100% 30.15 in
(1021 mb)
Calm - 1 1/2SM
05:15
Obscured
Fog And Mist
36°F / 2°C 36°F / 2°C 100% 30.15 in
(1021 mb)
Calm - 1 3/4SM
04:55
Clear
36°F / 2°C 36°F / 2°C 100% 30.15 in
(1021 mb)
Calm - 7SM
04:35
Clear
36°F / 2°C 36°F / 2°C 100% 30.15 in
(1021 mb)
Calm - 10SM
04:15
Obscured
Fog And Mist
36°F / 2°C 36°F / 2°C 100% 30.15 in
(1021 mb)
Calm - 1 1/4SM
03:55
Obscured
Fog And Mist
36°F / 2°C 36°F / 2°C 100% 30.15 in
(1021 mb)
Calm - 1SM
03:35
Obscured
Fog And Mist
36°F / 2°C 36°F / 2°C 100% 30.15 in
(1021 mb)
Calm - 1 1/2SM
03:15
Clear
36°F / 2°C 36°F / 2°C 100% 30.15 in
(1021 mb)
Calm - 7SM
02:55
Clear
37°F / 3°C 37°F / 3°C 100% 30.15 in
(1021 mb)
Calm - 10SM
02:35
Clear
37°F / 3°C 37°F / 3°C 100% 30.15 in
(1021 mb)
Calm - 10SM
02:15
Obscured
Fog And Mist
37°F / 3°C 37°F / 3°C 100% 30.15 in
(1021 mb)
Calm - 1 1/4SM
01:55
Clear
36°F / 2°C 36°F / 2°C 100% 30.15 in
(1021 mb)
Calm - 7SM
01:35
Clear
36°F / 2°C 36°F / 2°C 100% 30.15 in
(1021 mb)
Calm - 10SM
01:15
Clear
37°F / 3°C 36°F / 2°C 93% 30.15 in
(1021 mb)
Calm - 10SM
00:55
Obscured
Fog And Mist
37°F / 3°C 37°F / 3°C 100% 30.15 in
(1021 mb)
Calm - 3/4SM
00:35
Clear
Fog And Mist
37°F / 3°C 37°F / 3°C 100% 30.15 in
(1021 mb)
Calm - 2SM
00:15
Clear
39°F / 4°C 37°F / 3°C 93% 30.15 in
(1021 mb)
Calm - 7SM
Time Weather Temperature Dewpoint Humidity Pressure Winds Precip Visibility


Weather for websites

WeatherForYou.com, LLC is not responsible for any damages or problems caused by this service. Current weather conditions are obtained from the closest station including government and personal stations which may have varying degrees of accuracy. Weather forecasts are derived from the NOAA NDFD. Like all things, this site belongs to Jesus Christ... He just trusts me to maintain it. If you have any questions or comments email webmaster@weatherforyou.com

Copyright © 2014, WeatherForYou.com LLC. All rights reserved.